Weather History for KFFX - October, 2012

Change the Weather History Date:

Saturday, October 6, 2012

  Actual Average (KMKG) Record (KMKG)
Temperature  
Mean Temperature 45 °F 54 °F  
Max Temperature 50 °F 63 °F 82 °F (1900)
Min Temperature 40 °F 45 °F 28 °F (2003)
Degree Days  
Heating Degree Days 20 11  
Month to date heating degree days 63  
Since 1 July heating degree days 236  
Cooling Degree Days 0 0  
Month to date cooling degree days 2  
Year to date cooling degree days 563  
Moisture  
Dew Point 32 °F    
Average Humidity 63    
Maximum Humidity 80    
Minimum Humidity 50    
Precipitation  
Precipitation 0.00 in 0.11 in 0.70 in (1949)
Month to date precipitation 0.63  
Year to date precipitation 25.10  
Snow  
Snow 0.00 in 0.00 in T in (2001)
Month to date snowfall 0.0  
Since 1 July snowfall 0.0  
Since 1 September snowfall 0.0  
Snow Depth -    
Sea Level Pressure  
Sea Level Pressure 30.02 in    
Wind  
Wind Speed 10 mph (West)    
Max Wind Speed 17 mph    
Max Gust Speed 26 mph    
Visibility 10 miles    
Events      
T = Trace of Precipitation, MM = Missing Value Source: NWS Daily Summary

Daily Weather History Graph

Daily Weather History Graph

Search for Another Location

Airport or City:

Trip Planner

Search our weather history database for the weather conditions in past years. The results will help you decide how hot, cold, wet, or windy it might be!

Date:

Astronomy

Oct. 06, 2012 Rise Set
Actual Time 7:47 AM EDT 7:15 PM EDT
Civil Twilight 7:19 AM EDT 7:43 PM EDT
Nautical Twilight 6:46 AM EDT 8:16 PM EDT
Astronomical Twilight 6:12 AM EDT 8:50 PM EDT
Moon 11:22 PM EDT (10/6) 1:49 PM EDT (10/6)
Length of Visible Light 12h 24m
Length of Day
11h 27m
Waning Gibbous, 65% of the Moon is Illuminated
Oct 6
Waning Gibbous
Oct 8
Last Quarter
Oct 15
New
Oct 21
First Quarter
Oct 29
Full

Hourly Weather History & Observations

Time (EDT) Temp. Windchill Dew Point Humidity Pressure Visibility Wind Dir Wind Speed Gust Speed Precip Events Conditions
12:15 AM 45.5 °F 41.8 °F 31.1 °F 57% 29.95 in 10.0 mi WSW 6.9 mph - N/A   Mostly Cloudy
12:34 AM 45.9 °F 42.3 °F 31.5 °F 57% 29.94 in 10.0 mi WSW 6.9 mph - N/A   Overcast
12:55 AM 45.9 °F 42.3 °F 31.8 °F 58% 29.94 in 10.0 mi West 6.9 mph - N/A   Overcast
1:15 AM 46.2 °F 41.7 °F 31.5 °F 56% 29.94 in 10.0 mi West 9.2 mph - N/A   Overcast
1:34 AM 46.0 °F 40.2 °F 30.9 °F 56% 29.94 in 10.0 mi West 12.7 mph - N/A   Overcast
1:54 AM 45.7 °F 41.5 °F 30.6 °F 56% 29.94 in 10.0 mi West 8.1 mph - N/A   Overcast
2:15 AM 45.5 °F 39.9 °F 30.4 °F 56% 29.94 in 10.0 mi West 11.5 mph - N/A   Overcast
2:55 AM 44.6 °F 37.2 °F 28.2 °F 53% 29.95 in 10.0 mi West 17.3 mph 26.5 mph N/A   Overcast
3:14 AM 43.9 °F 36.8 °F 27.3 °F 52% 29.95 in 10.0 mi West 15.0 mph - N/A   Overcast
3:35 AM 43.3 °F 35.8 °F 27.5 °F 54% 29.94 in 10.0 mi West 16.1 mph 19.6 mph N/A   Overcast
3:54 AM 43.0 °F 36.0 °F 27.5 °F 54% 29.94 in 10.0 mi West 13.8 mph - N/A   Overcast
4:15 AM 42.8 °F 36.6 °F 27.7 °F 55% 29.94 in 10.0 mi West 11.5 mph 18.4 mph N/A   Overcast
4:35 AM 42.6 °F 35.6 °F 27.7 °F 56% 29.94 in 10.0 mi West 13.8 mph 18.4 mph N/A   Overcast
4:54 AM 42.3 °F 35.9 °F 28.0 °F 57% 29.94 in 10.0 mi West 11.5 mph - N/A   Overcast
5:35 AM 41.9 °F 35.9 °F 28.6 °F 59% 29.95 in 10.0 mi West 10.4 mph - N/A   Overcast
5:54 AM 41.9 °F 35.9 °F 28.8 °F 60% 29.95 in 10.0 mi West 10.4 mph - N/A   Overcast
6:15 AM 41.9 °F 36.3 °F 29.1 °F 61% 29.95 in 10.0 mi WSW 9.2 mph - N/A   Overcast
6:35 AM 41.9 °F 35.9 °F 29.7 °F 62% 29.95 in 10.0 mi West 10.4 mph 16.1 mph N/A   Overcast
6:55 AM 41.9 °F 35.9 °F 29.8 °F 62% 29.96 in 10.0 mi West 10.4 mph - N/A   Overcast
7:15 AM 41.9 °F 36.9 °F 30.4 °F 64% 29.96 in 10.0 mi West 8.1 mph - N/A   Overcast
7:35 AM 41.9 °F 35.9 °F 30.9 °F 65% 29.97 in 10.0 mi West 10.4 mph 17.3 mph N/A   Overcast
7:54 AM 41.9 °F 35.9 °F 31.5 °F 66% 29.97 in 10.0 mi West 10.4 mph - N/A   Overcast
8:15 AM 41.9 °F 36.3 °F 31.8 °F 67% 29.98 in 10.0 mi West 9.2 mph - N/A   Overcast
8:35 AM 41.9 °F 36.3 °F 31.8 °F 67% 29.98 in 10.0 mi West 9.2 mph - N/A   Overcast
8:54 AM 41.9 °F 36.3 °F 32.0 °F 68% 29.99 in 10.0 mi WSW 9.2 mph - N/A   Overcast
9:15 AM 42.1 °F 36.6 °F 32.2 °F 68% 30.00 in 10.0 mi West 9.2 mph - N/A   Overcast
9:34 AM 42.4 °F 36.1 °F 32.0 °F 67% 30.00 in 10.0 mi West 11.5 mph - N/A   Overcast
9:55 AM 42.8 °F 37.0 °F 32.7 °F 68% 30.00 in 10.0 mi West 10.4 mph - N/A   Overcast
10:15 AM 44.8 °F 39.4 °F 33.1 °F 64% 30.01 in 10.0 mi West 10.4 mph - N/A   Overcast
10:34 AM 43.7 °F 36.6 °F 32.5 °F 65% 30.01 in 10.0 mi West 15.0 mph 19.6 mph N/A   Overcast
10:55 AM 43.7 °F 36.6 °F 32.7 °F 65% 30.02 in 10.0 mi West 15.0 mph 19.6 mph N/A   Overcast
11:14 AM 43.9 °F 36.8 °F 32.7 °F 65% 30.02 in 10.0 mi West 15.0 mph 23.0 mph N/A   Overcast
11:35 AM 46.0 °F 39.3 °F 32.7 °F 60% 30.02 in 10.0 mi West 16.1 mph 19.6 mph N/A   Overcast
11:55 AM 45.7 °F 38.6 °F 32.2 °F 59% 30.03 in 10.0 mi West 17.3 mph 21.9 mph N/A   Overcast
12:14 PM 44.2 °F 37.6 °F 32.0 °F 62% 30.03 in 10.0 mi West 13.8 mph 20.7 mph N/A   Overcast
12:35 PM 44.8 °F 39.4 °F 32.2 °F 61% 30.03 in 10.0 mi West 10.4 mph - N/A   Overcast
12:54 PM 45.7 °F 39.8 °F 31.6 °F 58% 30.03 in 10.0 mi West 12.7 mph 20.7 mph N/A   Overcast
1:14 PM 45.5 °F 39.6 °F 30.9 °F 57% 30.03 in 10.0 mi WSW 12.7 mph 21.9 mph N/A   Mostly Cloudy
1:35 PM 50.2 °F - 32.0 °F 50% 30.04 in 10.0 mi West 12.7 mph 21.9 mph N/A   Mostly Cloudy
1:54 PM 44.4 °F 37.9 °F 33.1 °F 64% 30.04 in 10.0 mi NW 13.8 mph 21.9 mph N/A   Overcast
2:15 PM 45.1 °F 38.8 °F 32.4 °F 61% 30.04 in 10.0 mi WNW 13.8 mph 21.9 mph N/A   Overcast
2:35 PM 46.4 °F 40.4 °F 32.2 °F 58% 30.05 in 10.0 mi NW 13.8 mph 19.6 mph N/A   Overcast
2:54 PM 45.7 °F 39.5 °F 31.8 °F 58% 30.05 in 10.0 mi WNW 13.8 mph 23.0 mph N/A   Overcast
3:15 PM 46.2 °F 40.1 °F 30.2 °F 54% 30.05 in 10.0 mi West 13.8 mph 24.2 mph N/A   Overcast
3:34 PM 46.8 °F - 30.6 °F 53% 30.05 in 10.0 mi WNW 12.7 mph 19.6 mph N/A   Mostly Cloudy
3:54 PM 46.6 °F - 30.6 °F 54% 30.05 in 10.0 mi West 13.8 mph 17.3 mph N/A   Overcast
4:15 PM 46.9 °F - 30.7 °F 53% 30.05 in 10.0 mi West 10.4 mph - N/A   Overcast
4:34 PM 45.7 °F 41.0 °F 31.1 °F 57% 30.05 in 10.0 mi West 9.2 mph - N/A   Overcast
4:55 PM 45.7 °F 40.6 °F 31.3 °F 57% 30.05 in 10.0 mi NW 10.4 mph - N/A   Overcast
5:15 PM 44.6 °F 38.4 °F 32.4 °F 62% 30.06 in 10.0 mi West 12.7 mph 17.3 mph N/A   Overcast
5:34 PM 44.6 °F 40.7 °F 32.5 °F 63% 30.07 in 10.0 mi WNW 6.9 mph - N/A   Overcast
5:55 PM 44.4 °F 40.5 °F 33.3 °F 65% 30.07 in 10.0 mi West 6.9 mph - N/A   Overcast
6:15 PM 43.7 °F 40.3 °F 33.6 °F 68% 30.08 in 10.0 mi West 5.8 mph - N/A   Mostly Cloudy
6:34 PM 43.2 °F 39.7 °F 33.3 °F 68% 30.08 in 10.0 mi West 5.8 mph - N/A   Scattered Clouds
6:55 PM 43.7 °F - 34.0 °F 69% 30.09 in 10.0 mi Calm Calm - N/A   Mostly Cloudy
7:14 PM 43.2 °F - 34.9 °F 73% 30.09 in 10.0 mi Calm Calm - N/A   Overcast
7:35 PM 43.2 °F - 34.3 °F 71% 30.09 in 10.0 mi Calm Calm - N/A   Overcast
7:54 PM 43.2 °F - 34.0 °F 70% 30.09 in 10.0 mi Calm Calm - N/A   Overcast
8:15 PM 42.6 °F 40.9 °F 35.6 °F 76% 30.10 in 10.0 mi North 3.5 mph - N/A   Overcast
8:34 PM 43.0 °F - 34.5 °F 72% 30.10 in 10.0 mi Calm Calm - N/A   Overcast
8:55 PM 42.8 °F - 35.6 °F 76% 30.11 in 10.0 mi Calm Calm - N/A   Overcast
9:14 PM 42.4 °F - 36.1 °F 78% 30.11 in 10.0 mi Calm Calm - N/A   Overcast
9:35 PM 42.4 °F 39.6 °F 34.7 °F 74% 30.11 in 10.0 mi North 4.6 mph - N/A   Overcast
9:54 PM 41.9 °F 39.0 °F 34.5 °F 75% 30.11 in 10.0 mi North 4.6 mph - N/A   Overcast
10:15 PM 41.7 °F 39.8 °F 34.0 °F 74% 30.12 in 10.0 mi North 3.5 mph - N/A   Overcast
10:34 PM 41.4 °F 38.4 °F 33.6 °F 74% 30.12 in 10.0 mi North 4.6 mph - N/A   Overcast
10:55 PM 41.0 °F 39.0 °F 34.7 °F 78% 30.12 in 10.0 mi NNW 3.5 mph - N/A   Overcast
11:14 PM 41.0 °F - 34.5 °F 78% 30.12 in 10.0 mi Calm Calm - N/A   Overcast
11:34 PM 40.3 °F - 34.7 °F 80% 30.12 in 10.0 mi Calm Calm - N/A   Overcast
11:54 PM 40.5 °F - 34.9 °F 80% 30.12 in 10.0 mi Calm Calm - N/A   Overcast